User: anonymous   Login
Location: Newark
(49.1000°N, 0.4667°W)
Time: 00:33:43
(UTC+00:00)
Language:

NOAA 19 - Orbit

View from above orbital plane
View from above orbital plane
View from above satellite
View from above satellite

Ground track
Ground track

The orbit data is extracted from the following two-line orbital elements,

1 33591U 09005A   20188.50611400 +.00000062 +00000-0 +58988-4 0  9991
2 33591 099.1947 194.3494 0014428 026.6171 333.5738 14.12419457587828
Epoch (UTC): 06 July 2020 12:08:48
Eccentricity: 0.0014428
inclination: 99.1947°
perigee height: 840 km
apogee height: 861 km
right ascension of ascending node: 194.3494°
argument of perigee: 26.6171°
revolutions per day: 14.12419457
mean anomaly at epoch: 333.5738°
orbit number at epoch: 58782

The dashed part of the orbit path shows where the satellite is in the earth's shadow,  

DLR